This is the latest recevied weather packets stored in our database for station/object N8SHA. If no packets are shown the sender has not sent any weather packets the latest 10 day(s).
| Time | Temp. | Humidity | Pressure | Rain* | Wind** | Luminosity | Snow |
|---|---|---|---|---|---|---|---|
| 1777913857 | 23.33° C | 35% | 1002.3 hPa | 0 mm | - | 847 W/m² | - |
| 1777913553 | 23.89° C | 34% | 1002.3 hPa | 0 mm | - | 845 W/m² | - |
| 1777913250 | 23.33° C | 35% | 1002.2 hPa | 0 mm | - | 842 W/m² | - |
| 1777912947 | 23.33° C | 35% | 1002.6 hPa | 0 mm | - | 843 W/m² | - |
| 1777912643 | 23.33° C | 35% | 1002.5 hPa | 0 mm | - | 831 W/m² | - |
| 1777912339 | 23.33° C | 36% | 1002.6 hPa | 0 mm | - | 828 W/m² | - |
| 1777912035 | 23.33° C | 37% | 1002.5 hPa | 0 mm | - | 823 W/m² | - |
| 1777911731 | 22.78° C | 40% | 1002.8 hPa | 0 mm | - | 819 W/m² | - |
| 1777911428 | 22.78° C | 38% | 1002.9 hPa | 0 mm | - | 812 W/m² | - |
| 1777911125 | 22.78° C | 40% | 1003.1 hPa | 0 mm | - | 805 W/m² | - |
| 1777910823 | 22.22° C | 39% | 1003 hPa | 0 mm | - | 796 W/m² | - |
| 1777910519 | 22.22° C | 39% | 1003 hPa | 0 mm | - | 788 W/m² | - |
| 1777910216 | 22.22° C | 46% | 1003.1 hPa | 0 mm | - | 780 W/m² | - |
| 1777909913 | 22.22° C | 41% | 1003.3 hPa | 0 mm | - | 771 W/m² | - |
| 1777909610 | 22.22° C | 44% | 1003.4 hPa | 0 mm | - | 759 W/m² | - |
| 1777909307 | 21.67° C | 47% | 1003.2 hPa | 0 mm | - | 751 W/m² | - |
| 1777909005 | 21.67° C | 47% | 1003.3 hPa | 0 mm | - | 741 W/m² | - |
| 1777908703 | 21.67° C | 47% | 1003.4 hPa | 0 mm | - | 734 W/m² | - |
| 1777908399 | 20.56° C | 48% | 1003.4 hPa | 0 mm | - | 724 W/m² | - |
| 1777908096 | 20° C | 53% | 1003.3 hPa | 0 mm | - | 715 W/m² | - |
| 1777907792 | 20° C | 51% | 1003.4 hPa | 0 mm | - | 702 W/m² | - |
| 1777907487 | 19.44° C | 52% | 1003.7 hPa | 0 mm | - | 692 W/m² | - |
| 1777907184 | 20° C | 53% | 1003.7 hPa | 0 mm | - | 683 W/m² | - |
| 1777906881 | 18.89° C | 57% | 1003.7 hPa | 0 mm | - | 668 W/m² | - |
| 1777906579 | 18.89° C | 56% | 1003.8 hPa | 0 mm | - | 655 W/m² | - |
* Rain latest hour (hover to see other rain measurements)
** Current wind speed in m/s (hover to see current wind gust speed)